Regional Weather Roundup
Issued by NWS

Home | Current Version | Previous Version | Graphics & Text | Print | Product List | Glossary On
Versions: 1 2 3 4 5 6 7 8 9 10 11 12 13 14 15 16 17 18 19 20 21 22 23 24 25 26 27 28 29 30 31 32 33 34 35 36 37 38 39 40 41 42 43 44 45 46 47 48 49 50
000
ASUS43 KBIS 270302
RWRND

NORTH DAKOTA REGIONAL WEATHER ROUNDUP
NATIONAL WEATHER SERVICE BISMARCK ND
1000 PM CDT WED JUL 26 2017

NOTE: "FAIR" INDICATES FEW OR NO CLOUDS BELOW 12,000 FEET WITH NO
SIGNIFICANT WEATHER AND/OR OBSTRUCTIONS TO VISIBILITY.


NDZ001>003-009>011-017-270400-
NORTHWEST NORTH DAKOTA

CITY           SKY/WX    TMP DP  RH WIND       PRES   REMARKS
WILLISTON      CLEAR     81  52  36 E13       30.07R
MINOT          CLEAR     70  56  61 NE6       30.11R
MINOT AFB      CLEAR     73  56  54 E6        30.10R
$$

NDZ018>021-031>035-040>046-270400-
SOUTHWEST NORTH DAKOTA

CITY           SKY/WX    TMP DP  RH WIND       PRES   REMARKS
BISMARCK       CLEAR     73  54  51 E9        30.11R
DICKINSON      CLEAR     73  51  46 E12       30.09R
GARRISON         N/A     72  53  51 E9        30.11R
HETTINGER ARPT CLEAR     76  52  43 E10       30.11R
$$

NDZ004>008-012>016-024-026-027-054-270400-
NORTHEAST NORTH DAKOTA

CITY           SKY/WX    TMP DP  RH WIND       PRES   REMARKS
GRAND FORKS    PTCLDY    67  62  84 NW3       30.07R
GRND FRKS AFB  CLEAR     65  60  85 N3        30.08R
DEVILS LAKE    CLEAR     69  59  70 CALM      30.12S
$$

NDZ022-023-025-028>030-036>039-047>053-270400-
SOUTHEAST NORTH DAKOTA

CITY           SKY/WX    TMP DP  RH WIND       PRES   REMARKS
FARGO          CLEAR     70  62  76 NW7       30.07R
JAMESTOWN      CLEAR     66  59  78 CALM      30.11R
$$




USA.gov is the U.S. government's official web portal to all federal, state and local government web resources and services.